Location: Newark
(41.7622°N, 48.6978°E)
Time: 21:44:05
(UTC+00:00)

Envisat - Visible Passes

Search period start: 29 January 2020 00:00
Search period end: 08 February 2020 00:00
Orbit: 764 x 766 km, 98.1° (Epoch: 29 January)

Date Brightness Start Highest point End Pass type
(mag) Time Alt. Az. Time Alt. Az. Time Alt. Az.
29 Jan 6.2 02:07:58 10° ENE 02:10:34 14° E 02:13:08 10° ESE visible
29 Jan 4.0 14:59:50 10° S 15:04:45 51° W 15:09:43 10° NNW visible
30 Jan 3.9 03:08:17 10° NNE 03:13:17 54° E 03:18:15 10° S visible
30 Jan 3.0 14:22:55 10° SSE 14:27:58 73° ENE 14:33:03 10° N visible
30 Jan 6.2 16:05:10 10° WSW 16:07:30 13° W 16:09:51 10° WNW visible
31 Jan 5.5 02:32:11 10° NE 02:36:18 24° E 02:40:24 10° SSE visible
31 Jan 5.1 15:25:59 10° SSW 15:30:22 29° W 15:34:47 10° NW visible
01 Feb 6.5 01:58:05 10° ENE 01:59:07 11° E 02:00:10 10° E visible
01 Feb 3.5 14:48:25 10° S 14:53:26 65° WSW 14:58:31 10° NNW visible
02 Feb 4.4 02:57:07 10° NNE 03:01:57 42° E 03:06:45 10° S visible
02 Feb 6.0 15:52:52 10° SW 15:56:05 17° W 15:59:20 10° NW visible
03 Feb 5.9 02:21:17 10° NE 02:24:55 19° E 02:28:32 10° SE visible
03 Feb 4.7 15:14:20 10° SSW 15:19:00 37° W 15:23:43 10° NNW visible
04 Feb 3.3 03:22:24 10° NNE 03:27:30 75° ESE 03:32:35 10° S visible
04 Feb 3.1 14:37:03 10° SSE 14:42:08 83° WSW 14:47:15 10° NNW visible
05 Feb 4.9 02:46:00 10° NNE 02:50:36 33° E 02:55:10 10° SSE visible
05 Feb 5.7 15:40:51 10° SW 15:44:41 21° W 15:48:31 10° NW visible
06 Feb 6.2 02:10:34 10° NE 02:13:30 15° E 02:16:26 10° SE visible
06 Feb 4.2 15:02:48 10° S 15:07:40 47° W 15:12:34 10° NNW visible
07 Feb 3.8 03:11:09 10° NNE 03:16:11 59° E 03:21:12 10° S visible
07 Feb 6.4 16:08:37 10° WSW 16:10:27 12° W 16:12:18 10° WNW visible
